Wind_Speed
2 2 2 1 1 1 1 1 1 2 3 4 4 5 5 6 6 6 5 5 6 6 6 6 7 7 7 7 7 6 6 5 5 4 4 5 5 5 5 5 5 6 7
1 2 1 1 1 2 2 2 2 2 2 3 3 4 4 4 4 3 3 3 3 3 3 3 3 4 4 5 5 5 5 4 4 3 3 4 4 5 5 5 5 6 6
1 1 1 1 2 3 3 4 3 3 3 3 3 3 3 3 2 2 2 2 1 1 0 0 1 1 1 2 3 3 3 3 2 2 2 3 4 4 4 4 4 5 6
1 1 1 2 3 4 5 5 5 5 4 4 4 4 4 4 4 4 3 3 3 3 3 3 3 2 2 1 1 1 1 1 1 1 2 2 3 4 4 4 4 5 6
2 3 3 4 5 6 6 6 7 6 6 6 6 6 6 6 6 6 6 5 5 6 6 5 5 5 5 4 3 3 2 1 1 1 2 2 3 4 4 5 5 5 6
3 4 5 6 6 7 8 8 8 8 8 8 9 9 8 8 8 8 8 7 7 7 7 7 8 8 8 7 7 6 5 4 4 3 3 4 4 5 5 6 6 6 6
4 5 6 8 9 9 10 10 10 10 10 10 10 10 10 10 10 9 9 9 9 9 9 9 9 9 9 9 10 9 9 8 7 6 6 6 6 6 7 7 8 8 8
6 7 8 9 10 11 12 12 12 12 12 12 12 12 12 11 11 10 11 11 11 11 11 11 11 11 11 11 11 12 12 12 11 10 9 9 8 8 8 9 9 10 10
8 9 11 12 13 13 14 14 14 14 14 14 14 13 13 13 12 13 13 13 12 12 12 13 13 13 13 13 13 14 14 15 14 13 13 12 11 11 11 11 11 12 12
10 12 14 15 15 15 16 16 16 16 16 16 16 16 16 16 16 15 15 15 15 14 14 15 14 15 15 15 15 15 16 17 17 17 16 15 15 15 14 14 14 14 14
13 15 16 17 17 17 18 19 19 19 20 19 19 20 20 20 20 19 18 18 18 17 17 17 17 17 17 17 17 17 17 18 19 20 20 19 19 19 18 17 16 16 16
17 17 18 19 20 20 20 21 21 21 21 21 22 22 23 24 24 23 22 21 21 20 20 20 19 19 19 19 19 18 18 18 19 21 22 22 22 22 21 20 20 19 19
20 20 21 22 23 23 23 24 24 24 24 24 25 26 27 27 28 27 25 25 24 24 23 22 22 21 20 20 20 20 19 19 19 20 21 23 23 24 24 24 23 22 22
21 22 23 23 24 25 25 25 25 26 27 27 28 29 28 28 28 29 27 26 26 25 25 25 24 23 23 22 22 21 21 20 20 20 22 23 25 25 26 26 27 25 25
23 23 23 23 24 24 24 24 24 25 26 27 28 27 26 26 26 26 27 26 25 25 25 25 25 25 24 24 24 23 23 22 21 21 21 22 24 26 26 27 29 30 28
22 22 22 22 24 24 22 22 22 21 21 22 23 24 24 25 26 26 26 26 26 26 26 26 27 27 27 26 26 25 25 24 23 24 23 23 24 25 26 28 30 31 32
21 21 21 21 21 21 19 19 18 19 20 21 22 22 23 23 24 25 25 25 26 27 27 28 29 29 29 29 28 28 27 27 26 26 25 24 25 25 26 28 30 32 33
19 19 19 17 17 16 16 18 18 19 20 21 22 23 23 23 22 23 24 25 25 26 28 29 29 30 31 31 30 30 30 29 28 28 28 27 27 27 28 28 29 33 34
17 17 16 16 15 15 16 17 18 18 19 20 21 22 23 23 23 24 25 26 27 28 28 29 30 31 32 32 31 31 31 31 31 31 30 30 29 29 30 30 30 32 35
15 14 15 15 15 15 16 16 17 18 19 21 21 22 23 23 23 25 26 26 28 29 30 30 31 31 32 31 32 33 33 33 33 33 33 32 32 31 31 31 31 32 33
12 12 13 14 14 15 16 17 18 19 20 22 22 23 23 24 24 25 26 26 27 28 29 30 31 31 32 32 33 33 33 34 34 34 34 34 34 33 33 33 33 33 34
11 11 12 13 14 15 17 18 20 21 22 23 23 23 24 24 24 25 25 25 26 27 28 28 29 30 31 31 32 33 33 34 35 35 35 35 35 35 35 35 35 34 36
10 12 13 15 16 17 19 20 21 22 23 23 24 24 24 24 24 25 24 25 26 27 28 28 29 29 30 31 31 32 33 34 35 36 36 37 36 36 35 36 36 36 36
11 13 15 16 18 20 21 22 22 23 23 24 24 24 24 24 24 24 24 25 26 27 28 28 29 30 31 32 32 33 33 34 35 36 36 37 38 37 37 37 37 37 37
13 15 17 18 19 20 21 22 22 23 23 24 24 24 24 24 24 24 25 26 26 27 28 29 30 31 31 32 33 34 34 35 35 36 37 38 38 39 39 39 39 39 39
15 16 18 19 20 20 21 21 22 23 23 23 23 23 24 24 25 25 25 26 27 28 29 30 30 31 32 33 34 35 36 36 37 37 37 39 39 39 39 40 40 40 40
Wind_Direction
140 143 138 159 213 250 255 228 173 146 143 141 136 130 123 117 112 109 104 98 92 86 81 79 77 74 73 75 79 80 80 82 87 94 103 112 115 115 117 118 122 130 132
150 154 150 179 224 254 255 245 215 192 173 164 157 150 142 134 128 126 124 117 106 93 81 73 73 75 74 73 75 79 79 81 89 100 111 119 124 125 125 124 127 133 137
184 180 185 229 245 250 251 248 238 227 214 200 192 192 189 183 178 178 178 179 192 192 172 41 21 35 60 67 67 73 79 82 86 108 125 133 140 141 140 135 139 143 146
248 243 246 256 253 250 250 250 246 244 239 235 231 231 235 236 233 227 227 230 237 245 253 261 268 278 285 292 325 9 59 81 86 124 153 155 159 161 162 160 155 159 160
270 271 271 266 260 255 252 253 250 249 249 251 250 250 251 250 247 245 245 246 248 252 258 266 267 270 273 274 278 281 280 271 256 238 207 196 193 189 185 181 176 174 174
284 285 276 272 268 261 256 254 253 254 254 257 259 258 258 258 256 254 251 252 253 255 260 266 268 269 270 271 272 272 268 263 256 248 238 224 217 212 208 201 193 187 186
291 292 281 276 273 268 264 261 262 262 262 261 260 260 260 259 259 256 254 253 253 254 257 260 262 265 267 269 269 267 263 258 252 247 244 237 230 225 220 215 206 198 194
289 287 284 281 278 275 271 270 269 268 267 265 263 261 259 256 255 255 255 255 254 255 258 259 259 260 263 266 267 265 261 257 251 246 244 241 236 232 227 223 215 207 203
288 283 282 280 278 276 273 272 272 270 268 266 265 261 258 255 255 255 255 257 258 258 260 261 261 262 263 265 265 264 262 259 254 248 244 241 238 235 232 228 222 214 209
292 287 285 282 279 276 274 274 273 270 268 266 264 263 261 259 258 257 256 258 259 260 261 263 264 264 265 265 265 264 263 261 256 250 245 241 238 236 233 230 226 221 215
293 291 287 282 279 278 277 276 275 271 267 267 265 265 265 263 261 260 259 260 262 263 264 265 266 267 267 266 266 266 264 262 258 250 247 244 240 237 235 232 228 224 221
291 287 284 280 277 275 276 275 274 271 269 269 269 270 270 267 265 264 263 263 264 264 265 266 268 269 270 268 266 267 267 266 263 257 249 246 244 240 236 233 231 227 224
290 284 282 279 277 275 274 273 271 270 270 271 272 273 272 269 267 265 266 265 265 265 265 267 268 269 271 272 270 269 270 268 267 263 255 247 246 244 241 237 232 229 225
288 283 281 277 275 275 274 272 274 274 271 270 271 273 275 273 273 268 269 270 268 268 267 269 270 271 272 274 274 272 271 273 268 264 260 252 246 245 244 243 237 233 230
285 281 278 277 275 278 276 275 276 279 277 275 275 276 278 278 278 277 271 270 271 271 270 273 273 273 273 273 273 274 270 270 268 266 262 254 250 247 245 244 241 235 234
285 283 280 281 281 280 280 279 281 284 286 285 288 285 282 281 282 281 276 273 273 271 272 274 276 275 273 274 273 273 272 270 269 267 266 260 255 250 248 244 242 238 235
286 287 287 286 286 282 283 284 286 289 291 291 292 290 289 287 285 280 276 274 274 272 271 272 274 273 273 273 271 269 269 270 268 267 266 264 258 253 250 247 244 240 238
288 288 290 293 292 290 292 289 290 292 293 292 291 290 288 288 286 282 279 278 277 275 274 273 274 271 271 270 270 269 268 267 266 265 264 263 261 256 252 248 246 241 239
289 289 292 294 297 298 299 299 299 296 295 294 294 291 290 288 285 284 282 280 278 277 276 275 274 272 273 270 269 268 266 266 264 263 261 260 259 256 252 247 246 243 240
291 293 295 297 298 300 301 303 303 302 299 298 298 296 294 293 291 286 282 281 279 278 277 276 275 274 273 270 269 268 266 265 263 262 259 259 257 254 251 247 245 244 242
293 297 299 301 302 303 305 305 305 305 304 302 301 299 296 294 292 289 286 283 281 280 278 277 275 274 272 270 268 266 265 263 262 260 259 258 256 253 250 246 245 244 243
296 301 306 310 311 310 310 309 309 308 306 305 302 301 299 297 294 291 288 285 282 281 280 279 277 275 273 271 268 266 265 264 262 260 259 257 255 252 250 246 244 243 242
304 310 316 317 316 314 313 312 311 309 308 307 305 303 301 299 297 295 292 288 286 284 282 280 278 277 275 273 271 268 264 263 263 261 258 257 254 252 249 245 243 242 242
314 318 319 318 317 316 314 313 312 312 310 310 308 307 305 303 300 297 294 292 290 288 286 283 281 279 277 274 272 269 266 262 260 260 258 256 254 251 248 246 244 243 242
319 319 319 318 317 314 312 311 311 311 311 311 310 309 307 305 302 299 297 294 292 290 288 285 283 281 278 275 273 269 266 262 260 257 257 256 254 251 248 245 243 243 242
319 318 317 315 314 313 312 311 312 313 313 313 311 310 308 307 305 303 300 297 295 292 290 287 285 282 279 276 274 271 268 264 260 257 255 254 254 251 248 245 243 242 241
Height
5921 5920 5919 5919 5918 5918 5918 5918 5918 5917 5917 5916 5916 5916 5915 5915 5914 5914 5913 5913 5913 5912 5912 5911 5911 5910 5910 5909 5909 5908 5907 5907 5906 5906 5905 5905 5904 5904 5904 5904 5904 5904 5904
5920 5920 5919 5919 5919 5918 5918 5918 5917 5917 5917 5916 5916 5915 5915 5915 5914 5914 5913 5913 5913 5912 5912 5912 5911 5911 5910 5910 5909 5909 5908 5908 5907 5906 5906 5905 5905 5905 5905 5905 5905 5905 5905
5919 5919 5919 5919 5919 5918 5918 5917 5917 5916 5916 5915 5915 5915 5914 5914 5914 5914 5913 5913 5913 5912 5912 5912 5911 5911 5911 5910 5910 5909 5908 5908 5908 5907 5907 5906 5906 5906 5906 5906 5906 5906 5906
5918 5918 5918 5918 5918 5918 5917 5917 5916 5916 5915 5915 5914 5914 5914 5913 5913 5913 5913 5912 5912 5912 5912 5911 5911 5911 5910 5910 5909 5909 5909 5908 5908 5907 5907 5906 5906 5906 5906 5906 5907 5907 5907
5917 5917 5917 5917 5917 5917 5916 5916 5915 5915 5914 5914 5913 5913 5912 5912 5912 5912 5912 5911 5911 5911 5911 5911 5910 5910 5909 5909 5909 5909 5908 5908 5908 5907 5907 5906 5907 5906 5907 5907 5907 5907 5908
5915 5915 5915 5915 5916 5915 5915 5915 5914 5913 5913 5912 5912 5911 5911 5911 5910 5910 5910 5910 5910 5910 5909 5909 5909 5908 5908 5908 5908 5908 5908 5907 5907 5907 5907 5906 5906 5906 5907 5907 5907 5907 5908
5914 5914 5914 5914 5914 5913 5913 5912 5912 5911 5911 5910 5910 5909 5909 5909 5908 5908 5908 5907 5907 5907 5907 5907 5906 5906 5906 5906 5906 5906 5906 5906 5906 5906 5906 5906 5906 5906 5906 5907 5907 5907 5908
5912 5912 5912 5912 5911 5911 5910 5910 5909 5909 5908 5908 5907 5907 5906 5906 5906 5905 5905 5905 5905 5904 5904 5904 5904 5903 5903 5903 5903 5903 5903 5903 5904 5904 5904 5905 5905 5905 5906 5906 5906 5907 5907
5911 5910 5910 5909 5909 5908 5908 5907 5906 5906 5905 5905 5904 5904 5904 5903 5903 5902 5902 5902 5902 5902 5901 5901 5901 5901 5900 5900 5900 5900 5901 5900 5901 5901 5902 5903 5903 5904 5904 5905 5905 5906 5907
5909 5908 5907 5907 5906 5905 5905 5904 5903 5903 5902 5901 5901 5901 5900 5899 5899 5898 5898 5898 5898 5898 5898 5898 5897 5897 5897 5897 5897 5897 5897 5897 5897 5898 5899 5899 5900 5901 5902 5902 5903 5904 5905
5906 5905 5904 5903 5902 5902 5901 5900 5899 5898 5898 5897 5897 5897 5896 5895 5894 5894 5893 5893 5894 5894 5894 5894 5893 5893 5892 5893 5893 5893 5892 5893 5893 5893 5894 5896 5897 5898 5899 5900 5901 5902 5903
5903 5902 5901 5900 5899 5898 5897 5896 5895 5894 5893 5893 5893 5892 5891 5890 5890 5889 5889 5888 5888 5889 5889 5889 5888 5888 5888 5888 5888 5887 5888 5888 5888 5888 5889 5891 5892 5893 5894 5896 5897 5898 5900
5900 5899 5897 5896 5895 5894 5893 5892 5891 5890 5889 5889 5888 5888 5886 5885 5884 5884 5883 5883 5883 5883 5883 5883 5883 5883 5882 5882 5882 5882 5882 5882 5882 5883 5884 5886 5887 5888 5890 5891 5893 5894 5896
5895 5894 5893 5892 5891 5890 5889 5888 5887 5886 5885 5884 5883 5882 5881 5879 5878 5878 5877 5877 5877 5877 5877 5877 5877 5877 5877 5877 5877 5877 5877 5878 5878 5878 5878 5879 5881 5883 5884 5886 5887 5889 5891
5891 5889 5888 5887 5886 5885 5884 5883 5882 5881 5879 5878 5878 5876 5875 5874 5873 5872 5871 5871 5871 5871 5871 5871 5871 5871 5871 5871 5871 5871 5872 5872 5872 5872 5873 5874 5875 5876 5878 5880 5882 5884 5886
5886 5885 5884 5883 5881 5880 5879 5878 5877 5876 5874 5873 5872 5871 5870 5869 5868 5867 5866 5866 5866 5865 5865 5865 5865 5865 5865 5865 5865 5865 5865 5866 5866 5867 5867 5868 5868 5870 5872 5874 5876 5878 5880
5882 5881 5880 5878 5876 5875 5874 5874 5873 5871 5870 5869 5868 5866 5865 5864 5863 5861 5860 5860 5860 5859 5859 5859 5859 5858 5858 5859 5859 5859 5859 5859 5860 5860 5861 5862 5862 5863 5865 5867 5869 5872 5874
5878 5877 5876 5875 5873 5872 5871 5870 5869 5867 5866 5864 5863 5861 5860 5858 5857 5855 5855 5854 5853 5853 5852 5852 5851 5852 5852 5852 5851 5851 5851 5852 5853 5853 5854 5855 5856 5857 5859 5860 5862 5865 5867
5875 5874 5873 5872 5870 5869 5868 5866 5865 5863 5862 5860 5858 5856 5854 5853 5851 5849 5848 5848 5847 5846 5845 5845 5844 5844 5844 5844 5844 5844 5844 5845 5845 5846 5847 5848 5849 5850 5852 5853 5855 5857 5860
5872 5871 5870 5868 5867 5866 5865 5863 5861 5859 5857 5855 5853 5851 5849 5847 5845 5843 5842 5841 5840 5839 5838 5837 5837 5836 5835 5836 5836 5835 5836 5836 5837 5838 5839 5840 5841 5843 5844 5846 5848 5850 5853
5868 5868 5867 5866 5864 5862 5861 5859 5857 5854 5852 5850 5847 5845 5843 5841 5839 5837 5835 5834 5832 5831 5830 5830 5829 5828 5828 5827 5827 5827 5828 5828 5828 5829 5830 5832 5833 5835 5836 5838 5840 5843 5845
5865 5865 5864 5862 5861 5859 5857 5854 5852 5849 5847 5844 5842 5839 5837 5834 5832 5830 5828 5827 5825 5824 5823 5822 5821 5820 5819 5819 5819 5819 5819 5820 5820 5820 5821 5823 5824 5826 5828 5830 5832 5835 5837
5863 5862 5860 5858 5856 5854 5852 5850 5847 5844 5841 5838 5836 5833 5831 5828 5826 5824 5822 5820 5818 5816 5815 5814 5813 5812 5811 5810 5810 5810 5810 5811 5811 5812 5813 5814 5816 5817 5819 5821 5824 5827 5830
5860 5859 5857 5855 5852 5850 5847 5845 5842 5839 5836 5833 5830 5827 5824 5822 5819 5817 5815 5813 5811 5809 5807 5806 5805 5804 5802 5802 5801 5801 5801 5801 5802 5802 5803 5805 5806 5808 5810 5812 5815 5818 5821
5857 5855 5853 5851 5849 5846 5843 5840 5837 5834 5831 5828 5825 5822 5819 5816 5813 5811 5808 5806 5804 5802 5800 5798 5796 5795 5794 5793 5792 5792 5792 5792 5792 5793 5794 5795 5796 5799 5801 5803 5806 5809 5812
5854 5852 5850 5848 5845 5842 5839 5836 5833 5830 5826 5823 5820 5816 5813 5810 5807 5804 5802 5799 5797 5794 5792 5790 5788 5786 5785 5783 5782 5782 5782 5782 5782 5783 5784 5785 5786 5788 5791 5794 5797 5800 5803